Flag for Norway Weather past 2 weeks in Tromsø, Norway

Now
51 °F

Rain showers. Low clouds.


Feels Like: 48 °F
Forecast: 42 / 50 °F
Wind: 8 mph from West

Location: Tromso / Langnes

Current Time: Aug 31, 2015 at 9:36:31 AM

Latest Report: Aug 31, 2015 at 8:00 AM


Visibility: 5 mi

Pressure: 29.74 "Hg

Humidity: 90%

Dew point: 48 °F

Location of TromsøLocation

Historic Weather in Tromsø — Graph

°F

Tromsø temperature yesterday

Maximum temperature yesterday: 59 °F (at 3:00 PM)
Minimum temperature yesterday: 53 °F (at 10:00 PM)
Average temperature yesterday: 56 °F

Past Weeks' High & Low Weather Summary

 TemperatureHumidityPressure
High69 °F (Aug 28, 2:00 PM)98% (Aug 19, 3:00 AM)30.31 "Hg (Aug 19, 3:00 AM)
Low46 °F (Aug 27, 3:00 AM)42% (Aug 16, 5:00 PM)29.44 "Hg (Aug 28, 9:00 PM)
Average57 °F76%30.03 "Hg
* Reported Aug 16 8:00 AM — Aug 31 8:00 AM, Tromsø, Weather by CustomWeather, © 2015

Note: Actual official high and low records may vary slightly from our data, if they occured in-between our weather recording intervals... More about our weather records

Advertising

Tromsø weather history for previous 24 hours

 ConditionsComfort  
Time TempWeatherWind HumidityBarometerVisibility
8:00 AM
Mon, Aug 31
51 °FRain showers. Low clouds.8 mph90%29.74 "Hg5 mi
7:00 AM51 °FDrizzle. Overcast.9 mph91%29.73 "Hg6 mi
6:00 AM51 °FRain. Overcast.7 mph90%29.72 "Hg6 mi
5:00 AM52 °FLight rain. Overcast.9 mph87%29.71 "Hg7 mi
4:00 AM51 °FDrizzle. Low clouds.9 mph89%29.71 "Hg4 mi
3:00 AM52 °FDrizzle. Overcast.12 mph85%29.71 "Hg9 mi
2:00 AM52 °FDrizzle. Overcast.10 mph86%29.71 "Hg11 mi
1:00 AM52 °FRain showers. Overcast.14 mph84%29.70 "Hg7 mi
12:00 AM52 °FRain showers. Overcast.12 mph84%29.70 "Hg7 mi
11:00 PM
Sun, Aug 30
53 °FDrizzle. Overcast.9 mph85%29.70 "Hg8 mi
10:00 PM53 °FDrizzle. Overcast.8 mph83%29.71 "Hg14 mi
9:00 PM53 °FLight rain. Overcast.10 mph85%29.71 "Hg7 mi
8:00 PM54 °FRain showers. Overcast.9 mph80%29.70 "Hg6 mi
7:00 PM56 °FRain showers. Overcast.12 mph71%29.69 "Hg15 mi
6:00 PM57 °FRain showers. Overcast.10 mph64%29.70 "Hg22 mi
5:00 PM57 °FRain showers. Overcast.10 mph64%29.70 "Hg22 mi
4:00 PM57 °FOvercast.13 mph63%29.71 "Hg28 mi
3:00 PM59 °FOvercast.12 mph58%29.71 "Hg28 mi
2:00 PM59 °FOvercast.12 mph57%29.71 "Hg31 mi
1:00 PM58 °FOvercast.10 mph59%29.71 "Hg31 mi
12:00 PM57 °FOvercast.10 mph62%29.71 "Hg31 mi
11:00 AM58 °FOvercast.8 mph57%29.71 "Hg31 mi
10:00 AM58 °FOvercast.10 mph58%29.70 "Hg19 mi
9:00 AM56 °FOvercast.8 mph62%29.70 "Hg31 mi
Weather by CustomWeather, © 2015

See weather overviewHow to use our weather pages